SCP
0 0 1 1 0 0 0 0 0 1 1 1 1 1 1 1 1 1 1 0 0 1 1 1 1 1 1 1 1 0 0 0 0 1 1 0 0 0 0 0 0 0 0
1 1 1 1 0 0 0 0 0 1 1 1 1 1 1 1 1 1 1 1 1 1 1 1 1 1 1 1 1 0 0 0 0 1 1 0 0 0 0 0 0 0 0
1 1 1 1 1 1 1 1 1 1 1 0 0 0 0 0 1 1 1 1 1 1 1 1 1 1 1 1 1 1 1 1 0 0 0 0 0 0 0 0 0 0 0
1 1 1 1 1 1 1 1 1 1 0 0 0 0 0 0 1 1 1 1 1 1 1 1 1 1 1 1 1 1 1 1 0 0 0 0 0 0 0 0 0 0 0
2 2 2 2 1 1 1 1 1 0 0 0 0 0 0 0 1 1 1 1 1 1 1 1 1 1 1 1 1 1 1 1 0 0 0 0 0 0 0 0 0 0 0
2 2 2 2 2 1 1 1 1 0 0 0 0 0 0 0 1 1 1 1 1 1 1 1 1 1 1 1 1 1 1 0 0 0 0 0 0 0 0 0 0 0 0
2 2 2 2 2 1 1 1 1 0 0 0 0 0 0 0 1 1 1 1 1 1 1 1 1 1 1 1 1 1 1 1 0 0 0 0 0 0 0 0 0 0 0
2 2 2 2 1 1 1 1 0 0 0 0 0 0 0 0 0 1 1 1 1 1 1 1 1 1 1 1 1 1 1 1 0 0 0 0 0 0 0 0 0 0 0
2 1 1 1 1 1 0 0 0 0 0 0 0 0 0 0 0 0 0 1 1 1 1 1 1 1 1 1 1 1 1 1 0 0 0 0 0 0 0 0 0 0 0
1 1 0 0 0 0 0 0 0 0 0 0 0 0 0 0 0 0 0 0 0 1 1 1 1 1 1 1 1 1 1 1 0 0 0 0 0 0 0 0 0 0 0
0 0 0 0 0 0 0 0 0 0 0 0 0 0 0 0 0 0 0 0 0 1 1 1 1 1 1 1 1 1 1 1 1 0 0 1 1 1 0 0 0 0 0
0 0 0 0 0 0 0 0 0 0 0 0 0 0 0 0 0 0 0 0 0 0 1 1 1 1 1 1 1 1 1 1 1 1 1 1 1 1 1 1 0 0 0
0 0 0 0 0 0 0 0 0 0 0 0 0 0 0 0 0 0 0 0 0 0 0 0 0 1 1 1 1 1 1 1 1 1 1 1 1 1 1 1 1 1 1
0 0 0 0 0 0 0 0 0 0 0 0 0 0 0 0 0 0 0 0 0 0 0 0 0 0 1 1 1 1 1 1 1 1 1 1 1 1 1 1 1 1 1
0 0 0 0 0 0 0 0 0 0 0 0 0 0 0 0 0 0 0 0 0 0 0 0 0 0 1 1 1 1 1 1 1 1 1 1 1 1 1 1 1 1 1
0 0 0 0 0 0 0 0 0 0 0 0 0 0 0 0 0 0 0 0 0 0 0 0 0 0 1 1 1 1 1 1 1 1 1 1 1 1 1 1 1 1 1
0 0 0 0 0 0 0 0 0 0 0 0 0 0 0 0 0 0 0 0 0 0 0 0 0 0 1 1 1 1 1 1 1 1 1 1 1 1 1 1 1 1 1
0 0 0 0 0 1 1 0 0 0 0 0 0 0 0 0 0 0 0 0 0 0 0 0 0 0 1 1 1 1 1 1 1 1 1 1 1 1 1 1 1 1 1
0 0 0 0 1 1 1 1 0 0 0 0 0 0 0 0 0 0 0 0 0 0 0 0 0 0 1 1 1 1 1 1 1 1 1 1 1 1 1 1 1 1 1
0 0 0 0 0 1 1 1 0 0 0 0 0 0 0 0 0 0 0 0 0 0 0 0 0 0 1 1 1 1 1 1 1 1 1 1 1 1 1 1 1 1 1
0 0 0 0 0 0 1 0 0 0 0 0 0 0 0 0 0 0 0 0 0 0 0 0 0 0 0 1 1 1 1 1 1 1 1 1 1 1 1 1 1 1 1
0 0 0 0 0 0 0 0 0 0 0 0 0 0 0 0 0 0 0 0 0 0 0 0 0 0 0 1 1 1 1 1 1 1 1 1 1 1 1 1 1 1 1
0 0 0 0 0 0 0 0 0 0 0 0 0 0 0 0 0 0 0 0 0 0 0 0 0 0 0 0 0 1 1 1 1 1 1 1 1 1 1 1 1 1 1
0 0 0 0 0 0 0 0 0 0 0 0 0 0 0 0 0 0 0 0 0 0 0 0 0 0 0 0 0 1 1 1 1 1 1 1 1 1 1 1 1 1 1
0 0 0 0 0 0 0 0 0 0 0 0 0 0 0 0 0 0 0 0 0 0 0 0 0 0 0 0 0 0 0 1 1 1 1 1 1 1 1 1 1 1 1
0 0 0 0 0 0 0 0 0 0 0 0 0 0 0 0 0 0 0 0 0 0 0 0 0 0 0 0 0 0 0 0 1 1 1 1 1 2 1 1 1 1 1
Wind_Speed
7 9 9 8 8 8 8 8 8 8 7 7 6 5 5 5 4 4 3 3 2 2 1 1 2 2 2 3 3 3 3 3 3 3 3 2 3 3 3 3 3 1 4
9 10 10 8 8 8 8 7 7 7 7 6 5 5 4 4 4 3 2 2 1 1 1 2 2 2 2 2 3 3 2 3 3 3 3 1 1 2 2 3 5 4 3
10 10 10 9 8 8 8 7 7 7 7 6 5 4 4 4 3 2 1 1 1 2 2 2 2 3 2 2 2 3 2 3 3 2 5 2 2 3 2 3 3 3 2
10 9 9 9 8 8 7 7 7 7 7 6 5 5 4 4 3 2 1 1 1 2 2 3 3 4 3 3 3 3 3 3 3 5 4 2 1 5 2 3 3 3 2
9 9 10 8 8 8 7 7 7 7 6 6 5 5 4 4 3 3 3 3 3 3 3 3 4 4 4 4 4 3 3 3 3 6 2 2 2 4 3 3 3 2 2
10 9 10 8 8 8 8 7 7 6 6 6 5 5 5 4 3 3 3 3 3 4 4 4 4 4 5 5 5 4 4 3 6 3 2 2 1 3 2 2 2 2 2
9 8 10 8 8 7 7 7 6 6 5 5 5 5 4 4 4 4 4 4 4 4 4 4 4 4 5 5 5 4 4 5 6 3 3 2 1 2 2 2 2 1 1
9 8 9 9 7 6 6 6 5 5 4 4 4 4 4 4 5 4 4 4 4 4 4 5 4 5 4 4 5 5 4 7 5 3 3 2 2 1 2 2 2 1 1
8 7 6 7 8 7 5 5 4 4 4 4 4 4 4 4 4 4 4 4 4 5 5 5 4 4 4 4 4 4 4 5 6 3 3 1 2 1 2 1 1 1 2
7 6 5 5 4 5 6 5 4 4 4 4 3 4 3 1 0 1 2 3 4 5 6 5 4 4 5 4 4 4 4 7 6 4 3 1 2 2 2 1 0 1 1
6 5 4 4 4 3 3 4 3 3 3 1 2 2 3 3 2 1 5 6 5 5 5 5 4 4 5 4 2 4 6 4 3 4 2 3 1 2 2 1 1 2 2
6 4 3 3 3 3 2 2 1 1 1 1 2 2 2 3 3 4 2 1 3 4 4 2 4 5 7 3 3 4 3 3 4 3 0 2 2 3 3 1 2 2 2
5 4 3 2 2 1 1 0 0 1 1 1 3 2 3 3 2 2 2 1 2 4 4 2 5 4 4 2 3 3 3 4 3 3 1 2 2 3 3 2 2 3 3
4 3 2 2 2 2 1 1 0 1 1 2 2 4 3 3 3 3 3 3 3 3 3 4 3 4 4 4 4 4 3 3 3 2 0 2 2 3 2 2 3 3 3
5 4 3 2 1 1 1 0 0 1 2 2 2 3 4 3 4 3 3 3 4 3 3 3 4 4 4 4 4 4 3 3 3 3 1 2 1 3 3 2 3 4 4
5 4 4 3 2 1 1 1 0 1 1 2 2 3 4 3 3 4 4 3 4 4 4 4 4 4 3 3 4 3 4 3 3 3 2 2 2 1 2 3 4 4 4
5 5 4 3 2 2 1 1 0 0 1 2 2 3 4 4 4 4 4 4 4 4 4 4 4 4 3 3 3 3 3 3 2 3 2 2 2 4 2 3 3 4 4
5 5 4 3 3 2 1 1 0 0 1 1 2 2 4 4 5 4 4 4 4 4 3 3 4 3 3 3 2 2 2 2 3 3 3 2 2 2 4 3 3 3 4
6 5 5 4 3 2 1 1 0 0 0 1 1 2 4 4 5 4 4 4 4 3 3 3 2 3 3 2 2 2 2 1 2 3 3 2 2 2 2 4 4 3 3
6 6 5 4 3 3 2 1 1 0 0 1 2 2 4 4 4 4 3 4 4 3 3 3 3 3 3 3 2 1 1 1 1 1 2 2 1 2 2 2 3 4 4
7 7 6 5 4 3 2 2 1 1 0 0 1 3 3 4 4 4 4 4 4 3 4 4 3 2 2 2 2 1 1 1 0 1 1 1 1 1 1 2 2 2 3
7 7 7 6 5 4 2 1 0 1 1 1 1 1 3 3 4 4 4 4 3 3 3 3 2 3 2 2 2 2 1 2 1 1 1 1 1 2 1 1 2 2 2
8 7 6 6 6 4 3 2 1 1 1 1 1 1 2 3 3 4 4 4 4 3 2 3 3 3 2 2 2 2 2 0 1 2 1 1 1 1 1 1 1 2 2
8 7 7 7 6 5 5 3 2 1 2 2 2 1 2 2 3 3 4 4 3 3 3 3 2 2 3 2 1 2 2 2 2 1 2 2 2 1 1 1 1 1 1
7 7 7 7 6 6 5 4 3 2 2 1 2 2 2 1 2 3 4 3 3 2 3 3 2 2 2 3 2 2 1 1 3 2 1 1 1 1 1 1 0 0 1
7 7 7 7 6 5 5 5 4 3 2 2 2 2 2 1 2 2 3 3 3 3 3 3 2 2 2 2 2 2 2 2 2 2 2 2 1 1 1 1 0 0 0
Wind_Direction
138 132 126 126 121 118 116 115 112 109 107 107 108 114 118 117 117 121 117 104 95 79 61 52 47 41 39 31 24 23 24 22 20 16 14 21 21 20 15 5 318 61 66
132 128 126 124 119 116 113 110 108 105 102 100 98 100 103 102 105 104 92 77 57 37 21 23 16 11 12 10 5 7 12 11 7 6 341 246 111 38 20 4 348 24 47
129 127 131 122 117 112 110 106 102 97 93 90 86 91 97 95 94 86 73 65 22 7 3 2 356 350 352 351 350 352 352 355 352 341 280 267 115 91 26 10 14 26 43
129 128 121 120 117 113 109 104 97 91 85 81 76 76 76 76 72 68 46 31 2 344 348 353 347 340 336 341 340 335 335 339 332 292 269 350 6 77 24 11 18 27 36
127 123 116 123 117 110 104 98 93 89 84 79 71 63 58 55 51 42 25 6 358 348 342 341 338 332 330 330 329 324 326 321 297 273 323 334 346 64 11 4 14 25 34
128 124 117 121 113 107 101 96 91 85 78 73 65 56 47 41 30 20 6 358 353 348 346 342 341 330 324 326 323 319 319 310 274 279 304 295 324 71 360 351 5 23 34
125 122 120 115 110 106 102 96 89 80 73 67 59 49 38 28 19 8 359 351 346 341 342 343 342 336 326 318 318 315 317 299 280 285 277 280 27 41 341 346 355 22 46
125 124 120 118 112 108 104 96 86 75 66 58 48 39 29 20 14 4 356 352 348 344 339 336 338 334 328 320 312 310 314 296 267 273 277 276 52 339 313 335 341 30 60
126 127 127 130 133 125 106 89 79 69 59 48 36 26 17 13 10 5 355 351 345 341 335 331 334 329 327 320 313 312 306 298 280 268 267 265 82 297 290 299 334 57 69
131 131 129 125 130 132 131 107 76 63 56 47 41 24 3 313 246 332 309 7 338 336 336 331 322 318 314 309 312 308 293 269 258 264 262 94 73 284 286 299 261 140 104
141 137 136 135 128 124 116 111 136 122 95 193 146 98 277 303 332 275 28 9 344 339 338 339 330 316 295 256 270 297 269 269 278 272 266 58 343 285 275 263 191 163 151
150 144 142 149 148 150 120 131 164 115 98 324 358 7 328 341 341 330 84 351 339 322 285 316 307 266 260 261 199 232 264 272 267 260 184 79 304 287 265 234 191 168 166
146 143 152 165 153 156 147 115 51 25 29 345 359 359 335 325 313 312 314 258 287 285 294 285 266 277 289 297 297 278 295 292 277 273 114 92 290 286 264 228 194 178 170
158 163 168 184 172 175 145 117 284 340 353 7 358 343 337 338 324 337 317 332 317 317 316 301 294 292 289 282 277 279 272 276 282 287 71 84 287 282 261 212 182 175 173
176 175 177 194 186 159 139 200 276 8 351 11 1 336 341 331 329 333 319 326 314 314 301 299 292 302 293 295 290 287 282 272 276 272 192 119 288 282 262 212 184 183 177
181 176 173 187 190 209 196 193 11 26 14 344 356 338 334 335 327 327 322 325 319 313 312 300 294 294 285 286 288 288 281 271 261 271 263 173 177 244 254 221 195 188 183
182 178 173 182 192 204 192 94 18 330 342 353 357 337 339 341 327 329 326 322 319 313 303 298 299 291 286 279 275 278 271 269 256 255 249 255 202 178 190 217 210 196 190
185 179 167 179 197 189 172 178 212 354 1 4 358 342 338 341 340 335 326 326 323 314 306 302 296 292 287 286 284 278 266 258 259 260 249 233 234 215 170 171 193 196 187
187 183 177 176 183 163 152 176 213 21 8 355 353 350 343 345 338 330 332 328 326 317 309 301 299 298 295 291 276 268 272 262 267 249 238 230 216 220 195 154 167 165 175
188 186 183 166 172 154 165 182 155 181 290 359 2 4 353 341 343 336 326 332 329 319 314 303 299 290 294 284 280 286 288 252 240 268 258 220 213 208 207 179 173 160 155
187 188 180 177 165 166 171 196 201 197 280 342 2 3 347 344 343 334 325 337 328 330 322 312 297 275 275 276 260 239 199 195 153 160 238 241 182 170 186 187 185 180 162
185 186 182 181 172 176 173 195 252 320 294 344 328 336 342 344 342 329 329 326 333 326 319 313 303 289 278 274 275 262 222 177 157 135 163 199 185 155 173 174 174 182 190
189 184 184 181 173 171 169 168 169 186 239 226 276 323 335 330 336 333 332 329 328 319 327 309 293 277 279 270 292 292 285 279 123 147 128 139 125 134 154 155 187 190 189
189 181 185 182 178 173 179 193 216 257 291 316 309 322 306 313 326 332 329 327 324 324 321 310 311 288 275 262 242 281 304 329 278 175 152 118 114 133 127 130 165 209 208
181 179 184 182 182 181 192 192 227 252 290 302 294 305 303 328 320 331 325 325 324 321 322 320 312 290 274 276 269 255 254 252 263 258 194 166 152 140 123 118 140 200 221
176 177 182 185 185 189 199 205 223 246 268 281 285 299 293 306 310 337 327 326 326 325 319 311 296 282 283 278 274 266 259 259 255 241 223 198 189 147 153 137 150 137 150